| time (UTC) | temp F | wind direction | speed MPH | gust MPH | rain 1hr in | rain 24hr in | rain mn in | humidity % | barometer mb |
| 20260504190504 | 67 | 217 | 7.0 | 9.0 | 0.00 | 0.00 | 0.00 | 75 | 1011.9 |
| 20260504190004 | 67 | 202 | 5.0 | 6.0 | 0.00 | 0.00 | 0.00 | 75 | 1011.9 |
| 20260504185504 | 66 | 165 | 5.0 | 5.0 | 0.00 | 0.00 | 0.00 | 76 | 1011.9 |
| 20260504185005 | 66 | 213 | 5.0 | 5.0 | 0.00 | 0.00 | 0.00 | 76 | 1012.0 |
| 20260504184504 | 65 | 219 | 4.0 | 5.0 | 0.00 | 0.00 | 0.00 | 79 | 1012.2 |
| 20260504184004 | 65 | 209 | 2.0 | 6.0 | 0.00 | 0.00 | 0.00 | 77 | 1012.2 |
| 20260504183504 | 65 | 197 | 2.0 | 6.0 | 0.00 | 0.00 | 0.00 | 78 | 1012.3 |
| 20260504183004 | 65 | 203 | 6.0 | 6.0 | 0.00 | 0.00 | 0.00 | 79 | 1012.2 |
| 20260504182504 | 64 | 233 | 5.0 | 5.0 | 0.00 | 0.00 | 0.00 | 80 | 1012.2 |
| 20260504182004 | 64 | 217 | 4.0 | 4.0 | 0.00 | 0.00 | 0.00 | 77 | 1012.3 |
| 20260504181504 | 64 | 195 | 0.0 | 4.0 | 0.00 | 0.00 | 0.00 | 78 | 1012.3 |
| 20260504180804 | 64 | 92 | 1.0 | 4.0 | 0.00 | 0.00 | 0.00 | 79 | 1012.4 |
| 20260504180204 | 63 | 44 | 1.0 | 3.0 | 0.00 | 0.00 | 0.00 | 81 | 1012.5 |
| 20260504175704 | 62 | 346 | 2.0 | 4.0 | 0.00 | 0.00 | 0.00 | 81 | 1012.5 |
| 20260504175204 | 62 | 341 | 2.0 | 4.0 | 0.00 | 0.00 | 0.00 | 82 | 1012.4 |
| 20260504174705 | 62 | 226 | 1.0 | 4.0 | 0.00 | 0.00 | 0.00 | 83 | 1012.4 |
| 20260504174204 | 62 | 194 | 2.0 | 4.0 | 0.00 | 0.00 | 0.00 | 83 | 1012.5 |
| 20260504173704 | 61 | 338 | 1.0 | 4.0 | 0.00 | 0.00 | 0.00 | 83 | 1012.4 |
| 20260504173204 | 61 | 238 | 4.0 | 4.0 | 0.00 | 0.00 | 0.00 | 86 | 1012.5 |
| 20260504172704 | 60 | 179 | 2.0 | 4.0 | 0.00 | 0.00 | 0.00 | 85 | 1012.5 |
| 20260504172204 | 60 | 179 | 2.0 | 5.0 | 0.00 | 0.00 | 0.00 | 85 | 1012.5 |
| 20260504171704 | 60 | 200 | 4.0 | 5.0 | 0.00 | 0.00 | 0.00 | 87 | 1012.4 |
| 20260504171204 | 60 | 311 | 2.0 | 4.0 | 0.00 | 0.00 | 0.00 | 84 | 1012.5 |
| 20260504170704 | 59 | 194 | 1.0 | 4.0 | 0.00 | 0.00 | 0.00 | 88 | 1012.5 |
| 20260504170204 | 58 | 213 | 1.0 | 5.0 | 0.00 | 0.00 | 0.00 | 87 | 1012.6 |
| 20260504160306 | 55 | 360 | 3.0 | 6.0 | 0.00 | 0.00 | 0.00 | 93 | 1012.4 |
| 20260504150804 | 53 | 360 | 4.0 | 4.0 | 0.00 | 0.00 | 0.00 | 96 | 1012.0 |
| 20260504150305 | 53 | 360 | 1.0 | 4.0 | 0.00 | 0.00 | 0.00 | 96 | 1012.0 |
| 20260504140904 | 52 | 184 | 1.0 | 1.0 | 0.00 | 0.00 | 0.00 | 98 | 1011.6 |
| 20260504140404 | 52 | 184 | 1.0 | 1.0 | 0.00 | 0.00 | 0.00 | 98 | 1011.5 |
| 20260504130704 | 52 | 185 | 0.0 | 2.0 | 0.00 | 0.00 | 0.00 | 98 | 1011.0 |
| 20260504130204 | 52 | 185 | 2.0 | 2.0 | 0.00 | 0.00 | 0.00 | 98 | 1010.9 |
| 20260504120304 | 49 | 217 | 2.0 | 2.0 | 0.00 | 0.00 | 0.00 | 99 | 1010.2 |
| 20260504110504 | 48 | 242 | 0.0 | 0.0 | 0.00 | 0.00 | 0.00 | 97 | 1009.9 |
| 20260504100604 | 49 | 360 | 0.0 | 1.0 | 0.00 | 0.00 | 0.00 | 97 | 1009.4 |
| 20260504100104 | 50 | 360 | 0.0 | 1.0 | 0.00 | 0.00 | 0.00 | 97 | 1009.4 |
| 20260504081704 | 52 | 241 | 0.0 | 1.0 | 0.00 | 0.00 | 0.00 | 96 | 1008.9 |
| 20260504081204 | 52 | 360 | 0.0 | 2.0 | 0.00 | 0.00 | 0.00 | 96 | 1008.9 |
| 20260504080704 | 52 | 242 | 0.0 | 2.0 | 0.00 | 0.00 | 0.00 | 96 | 1008.9 |
| 20260504080203 | 53 | 360 | 1.0 | 1.0 | 0.00 | 0.00 | 0.00 | 96 | 1008.8 |
| 20260504050704 | 60 | 360 | 0.0 | 1.0 | 0.00 | 0.00 | 0.00 | 86 | 1008.1 |
| 20260504050204 | 60 | 360 | 1.0 | 1.0 | 0.00 | 0.00 | 0.00 | 84 | 1008.1 |
| 20260504045704 | 60 | 360 | 0.0 | 2.0 | 0.00 | 0.00 | 0.00 | 84 | 1007.9 |
| 20260504045204 | 61 | 360 | 1.0 | 2.0 | 0.00 | 0.00 | 0.00 | 84 | 1007.9 |
| 20260504044705 | 61 | 360 | 1.0 | 1.0 | 0.00 | 0.00 | 0.00 | 84 | 1008.0 |
| 20260504044204 | 61 | 360 | 0.0 | 1.0 | 0.00 | 0.00 | 0.00 | 83 | 1007.8 |
| 20260504043704 | 62 | 360 | 1.0 | 1.0 | 0.00 | 0.00 | 0.00 | 83 | 1007.8 |
| 20260504043204 | 62 | 360 | 0.0 | 0.0 | 0.00 | 0.00 | 0.00 | 82 | 1007.7 |
| 20260504042704 | 63 | 236 | 0.0 | 0.0 | 0.00 | 0.00 | 0.00 | 81 | 1007.7 |
| 20260504042204 | 63 | 360 | 0.0 | 0.0 | 0.00 | 0.00 | 0.00 | 79 | 1007.6 |
| 20260504041704 | 64 | 360 | 0.0 | 1.0 | 0.00 | 0.00 | 0.00 | 79 | 1007.7 |
| 20260504041204 | 64 | 360 | 0.0 | 1.0 | 0.00 | 0.00 | 0.00 | 78 | 1007.6 |
| 20260504040704 | 64 | 360 | 0.0 | 1.0 | 0.00 | 0.00 | 0.00 | 78 | 1007.6 |
| 20260504040205 | 66 | 360 | 0.0 | 1.0 | 0.00 | 0.00 | 0.00 | 74 | 1007.5 |
| 20260504035704 | 66 | 360 | 0.0 | 1.0 | 0.00 | 0.00 | 0.00 | 73 | 1007.5 |
| 20260504035204 | 67 | 360 | 0.0 | 1.0 | 0.00 | 0.00 | 0.00 | 72 | 1007.5 |
| 20260504034605 | 68 | 360 | 1.0 | 1.0 | 0.00 | 0.00 | 0.00 | 70 | 1007.4 |
| 20260504034104 | 69 | 242 | 1.0 | 1.0 | 0.00 | 0.00 | 0.00 | 70 | 1007.2 |
| 20260504033604 | 70 | 242 | 0.0 | 1.0 | 0.00 | 0.00 | 0.00 | 68 | 1007.2 |
| 20260504033104 | 71 | 242 | 1.0 | 1.0 | 0.00 | 0.00 | 0.00 | 68 | 1007.1 |
| 20260504032405 | 73 | 242 | 1.0 | 2.0 | 0.00 | 0.00 | 0.00 | 67 | 1006.9 |
| 20260504031904 | 74 | 242 | 1.0 | 2.0 | 0.00 | 0.00 | 0.00 | 63 | 1006.9 |
| 20260504031404 | 75 | 242 | 1.0 | 1.0 | 0.00 | 0.00 | 0.00 | 60 | 1006.9 |
| 20260504030704 | 77 | 242 | 0.0 | 0.0 | 0.00 | 0.00 | 0.00 | 57 | 1006.9 |
| 20260504030204 | 78 | 242 | 0.0 | 1.0 | 0.00 | 0.00 | 0.00 | 54 | 1006.8 |
| 20260504025704 | 80 | 242 | 0.0 | 1.0 | 0.00 | 0.00 | 0.00 | 55 | 1006.8 |
| 20260504025204 | 81 | 242 | 0.0 | 1.0 | 0.00 | 0.00 | 0.00 | 50 | 1006.7 |
| 20260504024605 | 82 | 242 | 0.0 | 2.0 | 0.00 | 0.00 | 0.00 | 43 | 1006.7 |
| 20260504024104 | 83 | 242 | 1.0 | 2.0 | 0.00 | 0.00 | 0.00 | 43 | 1006.6 |
| 20260504023604 | 84 | 240 | 0.0 | 2.0 | 0.00 | 0.00 | 0.00 | 39 | 1006.6 |
| 20260504023104 | 84 | 240 | 1.0 | 3.0 | 0.00 | 0.00 | 0.00 | 37 | 1006.6 |
| 20260504022604 | 84 | 232 | 0.0 | 4.0 | 0.00 | 0.00 | 0.00 | 38 | 1006.6 |
| 20260504022104 | 85 | 232 | 3.0 | 4.0 | 0.00 | 0.00 | 0.00 | 36 | 1006.6 |
| 20260504021604 | 85 | 250 | 2.0 | 4.0 | 0.00 | 0.00 | 0.00 | 35 | 1006.7 |
| 20260504021005 | 85 | 245 | 3.0 | 4.0 | 0.00 | 0.00 | 0.00 | 35 | 1006.8 |
| 20260504020504 | 86 | 250 | 3.0 | 4.0 | 0.00 | 0.00 | 0.00 | 34 | 1006.7 |
| 20260504015604 | 86 | 236 | 2.0 | 3.0 | 0.00 | 0.00 | 0.00 | 34 | 1006.7 |
| 20260504015104 | 87 | 245 | 2.0 | 3.0 | 0.00 | 0.00 | 0.00 | 34 | 1006.7 |
| 20260504014604 | 87 | 230 | 3.0 | 4.0 | 0.00 | 0.00 | 0.00 | 34 | 1006.7 |
| 20260504014104 | 87 | 271 | 2.0 | 4.0 | 0.00 | 0.00 | 0.00 | 34 | 1006.8 |
| 20260504013604 | 87 | 220 | 3.0 | 4.0 | 0.00 | 0.00 | 0.00 | 35 | 1006.7 |
| 20260504012904 | 87 | 191 | 2.0 | 4.0 | 0.00 | 0.00 | 0.00 | 36 | 1006.6 |
| 20260504012004 | 87 | 221 | 4.0 | 5.0 | 0.00 | 0.00 | 0.00 | 33 | 1006.8 |
| 20260504011504 | 87 | 281 | 1.0 | 3.0 | 0.00 | 0.00 | 0.00 | 32 | 1006.8 |
| 20260504011004 | 87 | 238 | 3.0 | 7.0 | 0.00 | 0.00 | 0.00 | 38 | 1006.8 |
| 20260504010504 | 87 | 238 | 2.0 | 7.0 | 0.00 | 0.00 | 0.00 | 36 | 1006.7 |
| 20260504005904 | 87 | 232 | 3.0 | 6.0 | 0.00 | 0.00 | 0.00 | 32 | 1006.9 |
| 20260504005405 | 87 | 198 | 3.0 | 6.0 | 0.00 | 0.00 | 0.00 | 35 | 1006.9 |
| 20260504004904 | 88 | 182 | 5.0 | 6.0 | 0.00 | 0.00 | 0.00 | 31 | 1006.9 |
| 20260504004404 | 88 | 239 | 1.0 | 7.0 | 0.00 | 0.00 | 0.00 | 32 | 1006.9 |
| 20260504003804 | 88 | 282 | 3.0 | 7.0 | 0.00 | 0.00 | 0.00 | 27 | 1007.0 |
| 20260504003304 | 88 | 224 | 4.0 | 4.0 | 0.00 | 0.00 | 0.00 | 28 | 1007.0 |
| 20260504002604 | 88 | 256 | 2.0 | 4.0 | 0.00 | 0.00 | 0.00 | 30 | 1007.1 |
| 20260504002104 | 88 | 255 | 0.0 | 4.0 | 0.00 | 0.00 | 0.00 | 30 | 1007.2 |
| 20260504001505 | 88 | 207 | 4.0 | 8.0 | 0.00 | 0.00 | 0.00 | 28 | 1007.2 |
| 20260504000804 | 88 | 225 | 8.0 | 8.0 | 0.00 | 0.00 | 0.00 | 29 | 1007.2 |
| 20260504000304 | 88 | 238 | 6.0 | 6.0 | 0.00 | 0.00 | 0.00 | 29 | 1007.4 |
| 20260503235804 | 88 | 232 | 3.0 | 8.0 | 0.00 | 0.00 | 0.00 | 28 | 1007.4 |
| 20260503235205 | 88 | 223 | 3.0 | 8.0 | 0.00 | 0.00 | 0.00 | 26 | 1007.6 |
| 20260503234704 | 88 | 217 | 4.0 | 5.0 | 0.00 | 0.00 | 0.00 | 28 | 1007.6 |
| 20260503234004 | 87 | 244 | 4.0 | 4.0 | 0.00 | 0.00 | 0.00 | 32 | 1007.7 |
| 20260503233504 | 87 | 247 | 2.0 | 10.0 | 0.00 | 0.00 | 0.00 | 30 | 1007.7 |
| 20260503233004 | 87 | 220 | 3.0 | 10.0 | 0.00 | 0.00 | 0.00 | 33 | 1007.7 |
| 20260503232305 | 87 | 231 | 5.0 | 10.0 | 0.00 | 0.00 | 0.00 | 28 | 1007.7 |
| 20260503231804 | 88 | 244 | 10.0 | 10.0 | 0.00 | 0.00 | 0.00 | 36 | 1007.8 |
| 20260503231304 | 88 | 284 | 2.0 | 6.0 | 0.00 | 0.00 | 0.00 | 37 | 1007.8 |
| 20260503230804 | 87 | 220 | 6.0 | 6.0 | 0.00 | 0.00 | 0.00 | 32 | 1007.9 |
| 20260503230104 | 87 | 224 | 2.0 | 10.0 | 0.00 | 0.00 | 0.00 | 36 | 1008.0 |
| 20260503225604 | 87 | 161 | 5.0 | 10.0 | 0.00 | 0.00 | 0.00 | 35 | 1008.0 |
| 20260503224904 | 88 | 189 | 2.0 | 4.0 | 0.00 | 0.00 | 0.00 | 35 | 1008.0 |
| 20260503224404 | 88 | 64 | 3.0 | 5.0 | 0.00 | 0.00 | 0.00 | 29 | 1008.1 |
| 20260503223704 | 88 | 355 | 5.0 | 6.0 | 0.00 | 0.00 | 0.00 | 31 | 1008.2 |
| 20260503223204 | 88 | 206 | 5.0 | 7.0 | 0.00 | 0.00 | 0.00 | 35 | 1008.3 |
| 20260503222704 | 87 | 251 | 1.0 | 7.0 | 0.00 | 0.00 | 0.00 | 34 | 1008.5 |
| 20260503222204 | 87 | 288 | 7.0 | 7.0 | 0.00 | 0.00 | 0.00 | 35 | 1008.4 |
| 20260503221704 | 87 | 260 | 6.0 | 6.0 | 0.00 | 0.00 | 0.00 | 36 | 1008.5 |
| 20260503220904 | 87 | 325 | 0.0 | 3.0 | 0.00 | 0.00 | 0.00 | 31 | 1008.6 |
| 20260503220404 | 87 | 299 | 1.0 | 6.0 | 0.00 | 0.00 | 0.00 | 29 | 1008.7 |
| 20260503215804 | 87 | 43 | 6.0 | 6.0 | 0.00 | 0.00 | 0.00 | 33 | 1008.8 |
| 20260503215304 | 87 | 24 | 3.0 | 9.0 | 0.00 | 0.00 | 0.00 | 31 | 1008.8 |
| 20260503214804 | 87 | 18 | 5.0 | 9.0 | 0.00 | 0.00 | 0.00 | 34 | 1008.9 |
| 20260503214304 | 87 | 16 | 3.0 | 6.0 | 0.00 | 0.00 | 0.00 | 31 | 1008.8 |
| 20260503213804 | 87 | 319 | 3.0 | 11.0 | 0.00 | 0.00 | 0.00 | 32 | 1008.9 |
| 20260503213304 | 87 | 5 | 4.0 | 11.0 | 0.00 | 0.00 | 0.00 | 34 | 1008.9 |
| 20260503212804 | 87 | 32 | 11.0 | 11.0 | 0.00 | 0.00 | 0.00 | 36 | 1008.9 |
| 20260503212104 | 87 | 355 | 3.0 | 6.0 | 0.00 | 0.00 | 0.00 | 33 | 1009.1 |
| 20260503211604 | 87 | 53 | 6.0 | 6.0 | 0.00 | 0.00 | 0.00 | 29 | 1009.1 |
| 20260503211104 | 87 | 300 | 1.0 | 4.0 | 0.00 | 0.00 | 0.00 | 27 | 1009.1 |
| 20260503210604 | 86 | 300 | 1.0 | 9.0 | 0.00 | 0.00 | 0.00 | 29 | 1009.3 |
| 20260503210105 | 86 | 324 | 4.0 | 9.0 | 0.00 | 0.00 | 0.00 | 32 | 1009.3 |
| 20260503205604 | 86 | 225 | 2.0 | 5.0 | 0.00 | 0.00 | 0.00 | 34 | 1009.4 |
| 20260503205004 | 86 | 310 | 5.0 | 5.0 | 0.00 | 0.00 | 0.00 | 33 | 1009.5 |
| 20260503204504 | 85 | 244 | 3.0 | 6.0 | 0.00 | 0.00 | 0.00 | 37 | 1009.5 |
| 20260503204004 | 86 | 244 | 3.0 | 6.0 | 0.00 | 0.00 | 0.00 | 37 | 1009.6 |
| 20260503203504 | 86 | 355 | 6.0 | 6.0 | 0.00 | 0.00 | 0.00 | 37 | 1009.7 |
| 20260503203004 | 86 | 82 | 0.0 | 5.0 | 0.00 | 0.00 | 0.00 | 36 | 1009.6 |
| 20260503202504 | 85 | 355 | 2.0 | 5.0 | 0.00 | 0.00 | 0.00 | 35 | 1009.8 |
| 20260503202004 | 85 | 338 | 1.0 | 5.0 | 0.00 | 0.00 | 0.00 | 32 | 1009.9 |
| 20260503201404 | 85 | 5 | 4.0 | 5.0 | 0.00 | 0.00 | 0.00 | 41 | 1009.9 |
| 20260503200804 | 85 | 336 | 3.0 | 7.0 | 0.00 | 0.00 | 0.00 | 40 | 1010.0 |
| 20260503200104 | 85 | 300 | 7.0 | 8.0 | 0.00 | 0.00 | 0.00 | 34 | 1010.2 |
| 20260503195404 | 85 | 32 | 3.0 | 8.0 | 0.00 | 0.00 | 0.00 | 38 | 1010.2 |
| 20260503194904 | 85 | 244 | 2.0 | 2.0 | 0.00 | 0.00 | 0.00 | 40 | 1010.2 |
| 20260503194404 | 84 | 32 | 2.0 | 5.0 | 0.00 | 0.00 | 0.00 | 45 | 1010.3 |
| 20260503193904 | 83 | 32 | 2.0 | 5.0 | 0.00 | 0.00 | 0.00 | 46 | 1010.3 |
| 20260503193204 | 83 | 246 | 3.0 | 10.0 | 0.00 | 0.00 | 0.00 | 45 | 1010.5 |
| 20260503192704 | 83 | 272 | 4.0 | 10.0 | 0.00 | 0.00 | 0.00 | 46 | 1010.5 |
| 20260503192204 | 84 | 330 | 2.0 | 8.0 | 0.00 | 0.00 | 0.00 | 43 | 1010.5 |
| 20260503191703 | 83 | 285 | 2.0 | 7.0 | 0.00 | 0.00 | 0.00 | 41 | 1010.5 |
| 20260503191105 | 83 | 278 | 2.0 | 7.0 | 0.00 | 0.00 | 0.00 | 39 | 1010.6 |